Wind_Speed
13 13 13 13 13 14 14 14 14 13 12 10 9 8 7 5 3 3 3 2 2 1 2 3 4 4 5 5 6 6 6 7 7 8 8 8 8 8 8 9 9 10 10
11 11 12 12 13 13 13 13 13 12 12 10 9 8 7 5 3 3 2 2 2 2 3 3 4 4 5 6 6 6 7 7 8 9 9 9 9 10 10 11 11 12 12
10 10 11 11 11 12 12 12 12 12 11 10 9 8 7 5 4 3 2 2 2 3 4 4 4 5 6 6 6 7 7 8 9 10 10 10 11 11 12 13 13 14 14
9 9 10 10 10 11 11 11 12 12 11 11 10 8 7 5 4 4 3 2 2 3 4 5 5 6 6 6 7 7 8 9 9 9 10 11 12 12 12 13 14 14 15
9 9 9 10 10 10 11 11 12 12 12 11 10 9 8 7 6 5 4 3 4 4 4 5 5 6 7 7 8 9 10 10 10 10 11 12 13 12 13 14 14 15 15
9 9 9 10 10 10 11 11 11 12 12 11 10 9 9 8 7 6 6 5 5 5 4 4 5 6 7 8 9 9 10 10 11 12 13 13 14 14 14 15 15 16 16
9 9 10 10 10 10 11 11 11 12 11 11 10 10 9 8 8 7 6 6 6 6 5 5 6 6 7 8 8 8 9 11 12 12 13 14 14 15 15 15 15 16 16
10 10 10 9 10 11 12 12 12 12 11 11 11 11 10 9 8 7 7 7 6 6 6 6 7 8 9 9 9 9 10 11 12 13 14 14 15 16 16 16 17 17 17
11 10 9 9 10 11 12 13 13 13 12 12 11 11 11 9 8 8 8 8 7 6 7 7 8 9 9 10 10 11 12 12 13 14 15 16 16 17 17 18 18 19 19
11 10 10 10 11 12 12 13 14 13 12 12 12 11 10 9 8 8 8 8 8 8 8 9 10 11 11 11 11 12 13 14 15 15 16 16 17 17 18 19 20 20 20
12 13 13 12 12 12 13 13 14 13 12 12 12 11 10 9 8 8 8 9 10 10 11 11 12 12 12 13 13 14 15 15 15 15 16 17 17 18 19 20 20 21 21
14 14 13 13 13 13 13 13 14 13 12 12 12 11 10 9 9 9 9 10 10 11 12 13 14 14 14 14 15 15 16 16 16 17 17 18 18 19 20 20 21 22 23
16 15 14 14 14 14 14 14 13 13 13 13 13 12 11 11 11 11 11 12 12 12 13 14 15 15 16 16 16 17 17 18 18 18 18 19 20 20 21 21 22 23 23
18 17 16 16 16 15 15 15 15 14 14 14 13 13 13 13 13 13 14 14 14 14 14 14 15 17 18 18 18 19 20 20 20 20 20 21 21 21 22 22 22 23 24
18 17 17 17 16 15 15 15 15 15 15 15 14 14 14 15 15 15 15 15 16 16 16 16 17 18 19 20 21 21 21 22 22 22 22 22 22 22 23 23 23 23 23
20 19 18 18 17 16 16 16 16 16 16 16 16 16 17 18 18 17 17 18 18 18 18 18 19 19 20 20 21 22 23 23 24 23 22 22 22 22 23 23 23 23 24
22 21 21 19 19 17 17 17 17 18 18 19 19 19 19 20 20 20 20 20 19 19 19 19 20 21 22 22 23 23 23 23 23 23 23 22 22 23 23 24 24 24 25
22 22 22 21 20 20 20 20 20 20 20 21 22 21 22 22 22 23 23 22 20 20 20 21 22 22 23 23 24 24 24 23 23 23 23 23 24 24 24 25 25 25 26
25 24 24 24 23 23 22 22 22 22 23 23 23 23 24 24 24 24 24 23 21 21 22 23 23 24 24 24 24 25 24 24 24 24 24 24 25 25 26 26 27 27 27
27 27 27 26 25 25 24 24 25 25 25 24 24 24 24 24 24 24 23 23 23 23 24 25 25 25 25 25 25 26 25 25 24 24 24 25 26 26 26 27 27 27 27
29 29 29 29 28 28 27 26 26 26 27 26 26 25 25 24 24 24 24 24 25 25 25 26 27 26 27 27 27 27 26 25 25 25 25 25 26 26 27 27 27 27 27
31 30 30 30 30 30 29 29 29 28 29 29 28 27 26 26 25 25 25 26 26 27 27 27 27 28 27 27 27 27 26 25 25 25 25 26 27 27 28 28 28 28 28
33 33 33 31 31 32 32 31 31 32 31 31 30 29 28 28 28 27 27 27 27 28 28 28 29 29 28 28 28 27 26 25 25 26 26 27 27 28 28 29 29 29 29
35 34 34 33 33 32 33 32 31 31 32 32 32 32 30 29 29 28 28 28 29 29 29 29 29 30 30 29 29 28 26 26 27 28 28 28 29 29 29 29 29 30 30
35 35 34 34 32 32 33 33 32 33 33 33 33 32 31 29 29 29 29 30 30 30 30 30 30 30 30 30 30 28 28 28 29 29 30 30 30 30 30 31 31 31 31
36 36 35 35 33 32 32 33 34 34 33 33 33 32 30 29 30 30 31 31 32 32 32 32 32 32 31 31 31 30 30 31 31 31 31 31 31 32 32 33 33 33 33
Wind_Direction
13 16 18 20 22 23 24 26 29 30 29 26 25 26 25 24 22 18 13 0 343 265 243 241 242 238 241 243 245 247 250 253 256 259 262 263 264 267 270 272 274 277 280
8 10 11 13 15 17 19 19 22 23 22 20 19 18 16 11 4 357 348 331 308 281 262 252 248 243 241 243 248 251 256 262 263 265 268 268 267 269 272 274 276 277 280
358 2 3 3 6 10 12 12 14 16 16 15 11 10 5 358 349 349 343 318 287 273 264 259 255 247 243 245 252 256 261 265 266 264 268 272 274 274 274 276 277 278 279
344 352 356 358 -0 4 3 3 5 8 8 8 7 2 356 348 339 329 317 311 295 280 266 260 262 261 259 255 261 262 265 268 270 268 269 271 273 277 278 279 279 279 279
330 338 345 351 355 357 355 355 357 358 0 2 1 358 356 348 338 330 316 302 297 287 271 264 264 265 265 268 269 268 268 271 273 275 274 273 273 277 280 281 281 281 281
318 326 334 339 343 346 347 350 355 355 357 356 358 356 352 349 343 333 324 313 300 287 279 276 278 277 277 275 273 277 276 276 277 278 277 276 275 277 278 279 281 282 281
306 311 321 326 334 337 339 340 349 349 348 350 351 348 347 345 341 333 324 315 302 288 285 288 291 289 288 285 281 282 282 282 282 281 279 278 277 279 279 279 280 281 283
300 303 312 322 326 329 331 336 341 340 338 339 340 339 338 337 338 333 328 321 314 303 296 295 297 295 293 286 280 282 285 286 286 284 281 278 278 279 279 279 280 279 281
294 296 305 317 321 322 325 329 328 326 327 329 331 331 330 328 327 326 327 327 320 308 301 300 301 302 297 290 286 287 286 286 286 285 284 282 279 279 278 278 278 279 279
288 292 300 308 314 318 318 320 325 323 324 325 327 329 328 324 323 322 319 320 318 310 302 299 301 299 300 299 296 296 293 290 290 286 283 284 282 280 279 278 280 281 280
286 291 293 297 304 310 315 318 322 324 325 325 328 329 328 324 322 318 315 316 315 313 306 301 300 300 298 299 299 298 296 295 294 290 286 285 287 285 281 280 280 281 281
281 286 289 294 295 300 306 311 314 315 318 321 324 326 328 325 318 312 311 311 310 308 305 300 298 298 298 297 297 298 297 296 295 292 289 287 285 287 285 282 281 282 282
279 282 286 292 292 292 296 301 308 309 309 311 316 319 321 322 318 312 308 307 306 303 301 299 298 298 298 297 296 297 298 297 296 293 291 289 286 286 287 285 284 282 282
279 279 278 289 293 289 290 295 300 304 306 308 312 313 312 315 315 310 307 305 304 300 298 298 297 299 300 300 297 295 296 295 295 293 290 288 288 287 286 286 286 285 284
277 281 280 283 286 285 286 289 293 299 302 305 306 309 308 305 307 308 306 304 302 301 297 294 296 297 298 298 297 296 295 295 295 294 291 289 288 287 287 287 286 286 286
275 278 278 280 281 285 287 286 288 293 297 298 299 300 302 299 298 299 300 300 299 298 297 296 297 300 299 299 297 296 296 295 295 294 292 291 290 289 289 288 285 285 287
270 271 273 277 280 282 283 284 284 287 292 292 291 294 296 298 296 298 296 295 296 296 298 297 298 300 301 300 299 298 299 298 298 295 293 293 292 290 289 290 288 287 287
266 269 271 273 275 278 280 282 283 285 287 289 288 290 292 295 296 296 298 295 293 294 297 299 298 299 301 301 300 298 297 296 296 294 293 293 292 290 288 289 289 288 287
263 264 268 268 271 276 280 282 283 286 287 289 288 289 291 291 293 296 297 296 297 300 299 300 300 299 300 300 299 299 297 296 296 295 293 292 291 290 289 289 290 288 288
262 261 264 267 271 275 278 282 283 285 286 288 288 288 290 291 294 295 296 298 298 300 300 298 301 301 300 298 296 296 295 294 294 295 293 293 293 292 292 291 291 290 288
259 262 264 265 268 272 275 279 281 283 284 284 285 286 287 288 292 291 293 295 297 298 300 301 301 301 301 298 295 294 293 292 293 294 293 293 293 293 292 293 292 291 290
259 261 264 265 268 270 273 275 278 280 281 281 280 284 287 286 288 290 292 293 294 294 295 299 300 302 301 299 297 297 296 294 294 294 293 294 294 293 293 293 293 292 291
261 260 262 265 269 271 274 275 278 278 279 281 282 283 285 285 285 286 289 292 294 294 293 296 297 300 300 299 299 297 295 295 295 294 293 293 294 294 293 293 293 294 294
262 262 264 267 269 272 273 275 276 275 277 279 282 282 281 282 283 284 288 291 292 295 295 296 296 296 297 297 296 296 294 293 294 294 293 294 294 294 293 294 294 294 295
261 262 264 265 267 268 269 271 272 273 275 277 281 281 279 281 284 285 287 289 290 292 294 294 295 295 294 294 294 293 294 294 293 294 294 294 294 293 294 295 295 296 295
260 262 265 264 265 266 268 270 271 273 274 276 279 281 280 283 283 284 285 286 288 290 292 294 295 293 292 292 293 293 293 292 292 293 293 294 294 293 293 294 295 295 295
Height
5918 5916 5914 5911 5909 5907 5905 5903 5900 5899 5897 5896 5894 5893 5892 5892 5891 5890 5890 5890 5890 5890 5890 5890 5890 5891 5891 5891 5892 5892 5893 5893 5894 5894 5894 5894 5894 5894 5894 5894 5894 5894 5894
5918 5916 5914 5912 5910 5908 5906 5904 5902 5900 5898 5897 5895 5894 5893 5892 5891 5890 5890 5889 5889 5889 5889 5889 5889 5889 5890 5890 5891 5891 5891 5892 5892 5892 5892 5892 5893 5892 5892 5892 5892 5892 5891
5918 5916 5915 5913 5911 5909 5907 5905 5902 5900 5899 5897 5896 5894 5893 5892 5891 5890 5889 5889 5888 5888 5888 5888 5888 5888 5889 5889 5889 5890 5890 5890 5890 5890 5891 5890 5890 5890 5890 5890 5889 5889 5889
5917 5916 5914 5912 5911 5909 5907 5905 5903 5901 5899 5897 5895 5894 5893 5892 5891 5890 5889 5888 5887 5887 5887 5887 5887 5887 5887 5887 5888 5888 5888 5888 5888 5888 5888 5888 5888 5888 5887 5887 5886 5886 5886
5917 5915 5914 5912 5910 5909 5907 5905 5903 5901 5899 5897 5895 5894 5892 5891 5890 5889 5888 5887 5887 5886 5886 5886 5886 5886 5886 5886 5886 5886 5886 5886 5886 5886 5886 5885 5885 5885 5884 5884 5884 5883 5882
5916 5915 5913 5912 5910 5908 5906 5904 5903 5900 5898 5897 5895 5893 5892 5891 5890 5889 5888 5887 5886 5886 5885 5885 5884 5884 5884 5884 5884 5884 5884 5884 5883 5883 5883 5882 5882 5882 5881 5881 5880 5880 5879
5915 5914 5912 5911 5909 5908 5906 5903 5902 5900 5898 5896 5895 5893 5892 5890 5889 5888 5887 5887 5886 5885 5885 5884 5883 5883 5882 5882 5882 5882 5881 5881 5881 5880 5880 5879 5879 5879 5878 5878 5877 5876 5875
5914 5912 5911 5910 5908 5906 5905 5902 5901 5899 5898 5896 5894 5892 5891 5889 5888 5887 5886 5885 5884 5884 5883 5883 5882 5881 5881 5880 5879 5879 5878 5878 5878 5877 5876 5876 5875 5875 5874 5874 5873 5873 5872
5911 5910 5909 5908 5906 5905 5903 5901 5899 5898 5896 5894 5892 5891 5889 5888 5887 5886 5885 5884 5883 5883 5882 5881 5880 5879 5879 5878 5877 5876 5875 5874 5874 5873 5873 5872 5871 5870 5870 5869 5869 5869 5868
5909 5908 5907 5906 5904 5903 5901 5899 5897 5895 5893 5892 5891 5889 5887 5886 5885 5884 5883 5883 5882 5881 5880 5879 5879 5878 5876 5875 5874 5873 5872 5871 5870 5869 5868 5868 5867 5866 5865 5865 5864 5864 5863
5906 5905 5905 5903 5902 5901 5899 5897 5895 5893 5891 5890 5889 5887 5885 5884 5883 5882 5881 5881 5880 5879 5878 5877 5876 5875 5874 5873 5871 5870 5869 5868 5866 5865 5864 5863 5862 5861 5860 5860 5859 5858 5858
5903 5902 5902 5901 5900 5898 5897 5895 5893 5891 5889 5888 5886 5885 5883 5882 5881 5880 5879 5878 5877 5876 5876 5875 5874 5873 5871 5870 5868 5867 5865 5864 5862 5861 5860 5858 5857 5856 5855 5854 5853 5853 5852
5900 5899 5898 5897 5896 5895 5894 5892 5891 5889 5887 5885 5884 5883 5881 5880 5879 5878 5877 5876 5874 5874 5873 5872 5870 5869 5868 5866 5865 5863 5862 5860 5858 5856 5855 5854 5852 5851 5850 5849 5848 5847 5845
5896 5895 5895 5894 5893 5891 5890 5889 5888 5886 5884 5883 5881 5881 5879 5878 5877 5876 5875 5873 5872 5871 5869 5868 5867 5865 5864 5862 5861 5859 5857 5855 5854 5852 5850 5849 5847 5846 5845 5844 5842 5841 5839
5892 5891 5891 5890 5889 5888 5887 5886 5885 5883 5882 5880 5879 5878 5877 5875 5874 5873 5871 5870 5869 5868 5866 5865 5863 5861 5859 5858 5856 5854 5852 5850 5848 5846 5845 5843 5842 5840 5839 5838 5837 5835 5834
5887 5886 5886 5885 5885 5884 5883 5882 5881 5880 5879 5877 5876 5874 5873 5872 5870 5869 5868 5866 5865 5864 5862 5860 5859 5857 5855 5853 5851 5849 5847 5845 5843 5841 5839 5838 5836 5834 5833 5832 5830 5829 5828
5881 5881 5881 5880 5880 5880 5879 5878 5877 5876 5875 5873 5872 5871 5870 5868 5866 5865 5863 5862 5860 5859 5858 5856 5854 5852 5850 5848 5845 5843 5841 5839 5837 5835 5833 5832 5830 5828 5827 5825 5823 5822 5821
5875 5875 5875 5874 5874 5874 5874 5873 5872 5871 5870 5869 5868 5867 5865 5864 5862 5861 5859 5857 5855 5854 5852 5851 5849 5847 5845 5842 5840 5837 5835 5833 5831 5829 5828 5826 5824 5822 5821 5819 5817 5815 5814
5868 5868 5869 5868 5868 5868 5868 5867 5866 5866 5865 5863 5862 5861 5860 5858 5857 5856 5853 5852 5850 5848 5846 5845 5843 5841 5838 5836 5833 5831 5829 5827 5825 5823 5821 5820 5818 5816 5814 5813 5811 5808 5806
5860 5861 5862 5862 5862 5861 5861 5860 5860 5860 5859 5857 5856 5854 5853 5852 5851 5850 5848 5846 5844 5843 5841 5839 5837 5834 5832 5829 5827 5824 5822 5820 5819 5816 5814 5813 5811 5809 5807 5806 5803 5801 5799
5852 5853 5854 5854 5854 5854 5853 5853 5853 5852 5851 5850 5849 5848 5846 5845 5844 5843 5842 5840 5838 5836 5834 5832 5830 5827 5825 5822 5820 5818 5816 5814 5812 5810 5808 5806 5804 5802 5801 5798 5796 5794 5792
5843 5844 5844 5845 5845 5845 5845 5845 5844 5844 5843 5842 5841 5840 5839 5838 5837 5836 5834 5833 5831 5829 5827 5826 5824 5821 5818 5816 5813 5811 5809 5807 5805 5803 5801 5799 5797 5795 5793 5791 5789 5787 5785
5834 5834 5835 5836 5836 5836 5836 5836 5835 5834 5833 5833 5833 5832 5831 5830 5829 5828 5827 5825 5823 5822 5820 5818 5816 5814 5812 5809 5806 5804 5802 5800 5798 5796 5794 5792 5790 5788 5786 5784 5782 5779 5777
5823 5824 5825 5826 5827 5827 5826 5826 5825 5825 5825 5825 5824 5823 5822 5821 5820 5819 5818 5817 5816 5814 5812 5811 5809 5806 5804 5802 5799 5797 5795 5793 5791 5789 5787 5785 5782 5780 5777 5775 5773 5771 5769
5813 5814 5814 5815 5816 5817 5817 5817 5816 5816 5816 5816 5815 5813 5812 5812 5812 5811 5810 5809 5807 5805 5804 5802 5800 5798 5796 5794 5792 5789 5787 5785 5783 5781 5779 5777 5774 5772 5769 5767 5765 5762 5760
5802 5803 5804 5804 5804 5805 5806 5807 5806 5806 5806 5806 5806 5804 5802 5802 5802 5802 5801 5799 5798 5797 5795 5793 5792 5789 5787 5785 5783 5781 5779 5777 5775 5773 5770 5768 5766 5763 5761 5759 5756 5753 5751